Time,TemperatureF,DewpointF,PressureIn,WindDirection,WindDirectionDegrees,WindSpeedMPH,WindSpeedGustMPH,Humidity,HourlyPrecipIn,Conditions,Clouds,dailyrainin,SoftwareType,DateUTC
2013-03-28 00:03:00,45.0,-99.9,29.81,NNE,21,5.0,-999.0,-999,-99.99,,,-99.99,,2013-03-28 04:03:00,
2013-03-28 00:12:00,45.0,-99.9,29.81,NNE,21,5.0,-999.0,-999,-99.99,,,-99.99,,2013-03-28 04:12:00,
2013-03-28 00:23:00,45.0,-99.9,29.81,NNE,12,8.0,-999.0,-999,-99.99,,,-99.99,,2013-03-28 04:23:00,
2013-03-28 00:32:00,45.0,-99.9,29.81,NNE,12,8.0,-999.0,-999,-99.99,,,-99.99,,2013-03-28 04:32:00,
2013-03-28 00:42:00,45.0,-99.9,29.80,NNW,346,9.0,-999.0,-999,-99.99,,,-99.99,,2013-03-28 04:42:00,
2013-03-28 00:53:00,45.0,-99.9,29.80,NNW,346,9.0,-999.0,-999,-99.99,,,-99.99,,2013-03-28 04:53:00,
2013-03-28 01:02:00,45.0,-99.9,29.80,NNW,346,9.0,-999.0,-999,-99.99,,,-99.99,,2013-03-28 05:02:00,
2013-03-28 01:13:00,45.0,-99.9,29.80,NNW,346,9.0,-999.0,-999,-99.99,,,-99.99,,2013-03-28 05:13:00,
2013-03-28 01:22:00,45.0,-99.9,29.80,North,8,12.0,-999.0,-999,-99.99,,,-99.99,,2013-03-28 05:22:00,
2013-03-28 01:32:00,45.0,-99.9,29.80,North,8,12.0,-999.0,-999,-99.99,,,-99.99,,2013-03-28 05:32:00,
2013-03-28 01:43:00,45.0,-99.9,29.80,North,8,12.0,-999.0,-999,-99.99,,,-99.99,,2013-03-28 05:43:00,
2013-03-28 01:52:00,44.0,-99.9,29.81,NNE,23,14.0,-999.0,-999,-99.99,,,-99.99,,2013-03-28 05:52:00,
2013-03-28 02:02:00,44.0,-99.9,29.81,NNE,23,14.0,-999.0,-999,-99.99,,,-99.99,,2013-03-28 06:02:00,
2013-03-28 02:13:00,44.0,-99.9,29.81,NNE,23,14.0,-999.0,-999,-99.99,,,-99.99,,2013-03-28 06:13:00,
2013-03-28 02:22:00,43.0,-99.9,29.81,NNE,21,19.0,-999.0,-999,-99.99,,,-99.99,,2013-03-28 06:22:00,
2013-03-28 02:33:00,43.0,-99.9,29.81,NNE,21,19.0,-999.0,-999,-99.99,,,-99.99,,2013-03-28 06:33:00,
2013-03-28 02:42:00,43.0,-99.9,29.81,NNE,21,19.0,-999.0,-999,-99.99,,,-99.99,,2013-03-28 06:42:00,
2013-03-28 02:52:00,43.0,-99.9,29.80,NNE,13,16.0,-999.0,-999,-99.99,,,-99.99,,2013-03-28 06:52:00,
2013-03-28 03:02:00,43.0,-99.9,29.80,NNE,13,16.0,-999.0,-999,-99.99,,,-99.99,,2013-03-28 07:02:00,
2013-03-28 03:13:00,43.0,-99.9,29.80,NNE,13,16.0,-999.0,-999,-99.99,,,-99.99,,2013-03-28 07:13:00,
2013-03-28 03:22:00,43.0,-99.9,29.80,North,2,15.0,-999.0,-999,-99.99,,,-99.99,,2013-03-28 07:22:00,
2013-03-28 03:32:00,43.0,-99.9,29.80,North,2,15.0,-999.0,-999,-99.99,,,-99.99,,2013-03-28 07:32:00,
2013-03-28 03:42:00,43.0,-99.9,29.80,North,2,15.0,-999.0,-999,-99.99,,,-99.99,,2013-03-28 07:42:00,
2013-03-28 03:52:00,42.0,-99.9,29.81,NNE,23,17.0,-999.0,-999,-99.99,,,-99.99,,2013-03-28 07:52:00,
2013-03-28 04:03:00,42.0,-99.9,29.81,NNE,23,17.0,-999.0,-999,-99.99,,,-99.99,,2013-03-28 08:03:00,
2013-03-28 04:12:00,42.0,-99.9,29.81,NNE,23,17.0,-999.0,-999,-99.99,,,-99.99,,2013-03-28 08:12:00,
2013-03-28 04:22:00,41.0,-99.9,29.81,NNE,16,13.0,-999.0,-999,-99.99,,,-99.99,,2013-03-28 08:22:00,
2013-03-28 04:33:00,41.0,-99.9,29.81,NNE,16,13.0,-999.0,-999,-99.99,,,-99.99,,2013-03-28 08:33:00,
2013-03-28 04:42:00,41.0,-99.9,29.81,NNE,16,13.0,-999.0,-999,-99.99,,,-99.99,,2013-03-28 08:42:00,
2013-03-28 04:52:00,41.0,-99.9,29.81,North,9,16.0,-999.0,-999,-99.99,,,-99.99,,2013-03-28 08:52:00,
2013-03-28 05:02:00,41.0,-99.9,29.81,North,9,16.0,-999.0,-999,-99.99,,,-99.99,,2013-03-28 09:02:00,
2013-03-28 05:12:00,41.0,-99.9,29.81,North,9,16.0,-999.0,-999,-99.99,,,-99.99,,2013-03-28 09:12:00,
2013-03-28 05:22:00,40.0,-99.9,29.82,North,11,16.0,-999.0,-999,-99.99,,,-99.99,,2013-03-28 09:22:00,
2013-03-28 05:33:00,40.0,-99.9,29.82,North,11,16.0,-999.0,-999,-99.99,,,-99.99,,2013-03-28 09:33:00,
2013-03-28 05:42:00,40.0,-99.9,29.82,North,11,16.0,-999.0,-999,-99.99,,,-99.99,,2013-03-28 09:42:00,
2013-03-28 05:52:00,40.0,-99.9,29.82,NNE,14,12.0,-999.0,-999,-99.99,,,-99.99,,2013-03-28 09:52:00,
2013-03-28 06:03:00,40.0,-99.9,29.82,NNE,14,12.0,-999.0,-999,-99.99,,,-99.99,,2013-03-28 10:03:00,
2013-03-28 06:12:00,40.0,-99.9,29.82,NNE,14,12.0,-999.0,-999,-99.99,,,-99.99,,2013-03-28 10:12:00,
2013-03-28 06:22:00,40.0,-99.9,29.83,North,5,14.0,-999.0,-999,-99.99,,,-99.99,,2013-03-28 10:22:00,
2013-03-28 06:33:00,40.0,-99.9,29.83,North,5,14.0,-999.0,-999,-99.99,,,-99.99,,2013-03-28 10:33:00,
2013-03-28 06:43:00,40.0,-99.9,29.83,North,5,14.0,-999.0,-999,-99.99,,,-99.99,,2013-03-28 10:43:00,
2013-03-28 06:53:00,40.0,-99.9,29.83,North,9,12.0,-999.0,-999,-99.99,,,-99.99,,2013-03-28 10:53:00,
2013-03-28 07:03:00,40.0,-99.9,29.83,North,9,12.0,-999.0,-999,-99.99,,,-99.99,,2013-03-28 11:03:00,
2013-03-28 07:12:00,40.0,-99.9,29.83,North,9,12.0,-999.0,-999,-99.99,,,-99.99,,2013-03-28 11:12:00,
2013-03-28 07:23:00,40.0,-99.9,29.84,NNE,15,14.0,-999.0,-999,-99.99,,,-99.99,,2013-03-28 11:23:00,
2013-03-28 07:32:00,40.0,-99.9,29.84,NNE,15,14.0,-999.0,-999,-99.99,,,-99.99,,2013-03-28 11:32:00,
2013-03-28 07:43:00,40.0,-99.9,29.84,NNE,15,14.0,-999.0,-999,-99.99,,,-99.99,,2013-03-28 11:43:00,
2013-03-28 07:52:00,40.0,-99.9,29.85,North,357,17.0,-999.0,-999,-99.99,,,-99.99,,2013-03-28 11:52:00,
2013-03-28 08:02:00,40.0,-99.9,29.85,North,357,17.0,-999.0,-999,-99.99,,,-99.99,,2013-03-28 12:02:00,
2013-03-28 08:12:00,40.0,-99.9,29.85,North,357,17.0,-999.0,-999,-99.99,,,-99.99,,2013-03-28 12:12:00,
2013-03-28 08:22:00,41.0,-99.9,29.85,NNE,12,18.0,-999.0,-999,-99.99,,,-99.99,,2013-03-28 12:22:00,
2013-03-28 08:33:00,41.0,-99.9,29.85,NNE,12,18.0,-999.0,-999,-99.99,,,-99.99,,2013-03-28 12:33:00,
2013-03-28 08:42:00,41.0,-99.9,29.85,NNE,12,18.0,-999.0,-999,-99.99,,,-99.99,,2013-03-28 12:42:00,
2013-03-28 08:52:00,41.0,-99.9,29.86,NNE,27,18.0,-999.0,-999,-99.99,,,-99.99,,2013-03-28 12:52:00,
2013-03-28 09:02:00,41.0,-99.9,29.86,NNE,27,18.0,-999.0,-999,-99.99,,,-99.99,,2013-03-28 13:02:00,
2013-03-28 09:12:00,41.0,-99.9,29.86,NNE,27,18.0,-999.0,-999,-99.99,,,-99.99,,2013-03-28 13:12:00,
2013-03-28 09:22:00,41.0,-99.9,29.87,NNE,18,15.0,-999.0,-999,-99.99,,,-99.99,,2013-03-28 13:22:00,
2013-03-28 09:32:00,41.0,-99.9,29.87,NNE,18,15.0,-999.0,-999,-99.99,,,-99.99,,2013-03-28 13:32:00,
2013-03-28 09:42:00,41.0,-99.9,29.87,NNE,18,15.0,-999.0,-999,-99.99,,,-99.99,,2013-03-28 13:42:00,
2013-03-28 09:52:00,41.0,-99.9,29.88,NE,45,11.0,-999.0,-999,-99.99,,,-99.99,,2013-03-28 13:52:00,
2013-03-28 10:02:00,41.0,-99.9,29.88,NE,45,11.0,-999.0,-999,-99.99,,,-99.99,,2013-03-28 14:02:00,
2013-03-28 10:12:00,41.0,-99.9,29.88,NE,45,11.0,-999.0,-999,-99.99,,,-99.99,,2013-03-28 14:12:00,
2013-03-28 10:23:00,41.0,-99.9,29.88,NE,38,12.0,-999.0,-999,-99.99,,,-99.99,,2013-03-28 14:23:00,
2013-03-28 10:33:00,41.0,-99.9,29.88,NE,38,12.0,-999.0,-999,-99.99,,,-99.99,,2013-03-28 14:33:00,
2013-03-28 10:42:00,41.0,-99.9,29.88,NE,38,12.0,-999.0,-999,-99.99,,,-99.99,,2013-03-28 14:42:00,
2013-03-28 10:52:00,42.0,-99.9,29.89,NE,35,13.0,-999.0,-999,-99.99,,,-99.99,,2013-03-28 14:52:00,
2013-03-28 11:02:00,42.0,-99.9,29.89,NE,35,13.0,-999.0,-999,-99.99,,,-99.99,,2013-03-28 15:02:00,
2013-03-28 11:12:00,42.0,-99.9,29.89,NE,35,13.0,-999.0,-999,-99.99,,,-99.99,,2013-03-28 15:12:00,
2013-03-28 11:22:00,43.0,-99.9,29.89,NE,55,14.0,-999.0,-999,-99.99,,,-99.99,,2013-03-28 15:22:00,
2013-03-28 11:33:00,43.0,-99.9,29.89,NE,55,14.0,-999.0,-999,-99.99,,,-99.99,,2013-03-28 15:33:00,
2013-03-28 11:43:00,43.0,-99.9,29.89,NE,55,14.0,-999.0,-999,-99.99,,,-99.99,,2013-03-28 15:43:00,
2013-03-28 11:53:00,44.0,-99.9,29.90,NE,52,9.0,-999.0,-999,-99.99,,,-99.99,,2013-03-28 15:53:00,
2013-03-28 12:03:00,44.0,-99.9,29.90,NE,52,9.0,-999.0,-999,-99.99,,,-99.99,,2013-03-28 16:03:00,
2013-03-28 12:13:00,44.0,-99.9,29.90,NE,52,9.0,-999.0,-999,-99.99,,,-99.99,,2013-03-28 16:13:00,
2013-03-28 12:23:00,46.0,-99.9,29.90,NE,50,14.0,-999.0,-999,-99.99,,,-99.99,,2013-03-28 16:23:00,
2013-03-28 12:32:00,46.0,-99.9,29.90,NE,50,14.0,-999.0,-999,-99.99,,,-99.99,,2013-03-28 16:32:00,
2013-03-28 12:42:00,46.0,-99.9,29.90,NE,50,14.0,-999.0,-999,-99.99,,,-99.99,,2013-03-28 16:42:00,
2013-03-28 12:52:00,47.0,-99.9,29.89,NE,56,6.0,-999.0,-999,-99.99,,,-99.99,,2013-03-28 16:52:00,
2013-03-28 13:02:00,47.0,-99.9,29.89,NE,56,6.0,-999.0,-999,-99.99,,,-99.99,,2013-03-28 17:02:00,
2013-03-28 13:12:00,47.0,-99.9,29.89,NE,56,6.0,-999.0,-999,-99.99,,,-99.99,,2013-03-28 17:12:00,
2013-03-28 13:22:00,48.0,-99.9,29.89,NNE,28,14.0,-999.0,-999,-99.99,,,-99.99,,2013-03-28 17:22:00,
2013-03-28 13:32:00,48.0,-99.9,29.89,NNE,28,14.0,-999.0,-999,-99.99,,,-99.99,,2013-03-28 17:32:00,
2013-03-28 13:42:00,48.0,-99.9,29.89,NNE,28,14.0,-999.0,-999,-99.99,,,-99.99,,2013-03-28 17:42:00,
2013-03-28 13:52:00,48.0,-99.9,29.89,ENE,61,9.0,-999.0,-999,-99.99,,,-99.99,,2013-03-28 17:52:00,
2013-03-28 14:03:00,48.0,-99.9,29.89,ENE,61,9.0,-999.0,-999,-99.99,,,-99.99,,2013-03-28 18:03:00,
2013-03-28 14:12:00,48.0,-99.9,29.89,ENE,61,9.0,-999.0,-999,-99.99,,,-99.99,,2013-03-28 18:12:00,
2013-03-28 14:22:00,48.0,-99.9,29.89,NE,44,10.0,-999.0,-999,-99.99,,,-99.99,,2013-03-28 18:22:00,
2013-03-28 14:32:00,48.0,-99.9,29.89,NE,44,10.0,-999.0,-999,-99.99,,,-99.99,,2013-03-28 18:32:00,
2013-03-28 14:42:00,48.0,-99.9,29.89,NE,38,11.0,-999.0,-999,-99.99,,,-99.99,,2013-03-28 18:42:00,
2013-03-28 14:52:00,48.0,-99.9,29.89,NE,38,11.0,-999.0,-999,-99.99,,,-99.99,,2013-03-28 18:52:00,
2013-03-28 15:02:00,48.0,-99.9,29.89,NE,38,11.0,-999.0,-999,-99.99,,,-99.99,,2013-03-28 19:02:00,
2013-03-28 15:12:00,48.0,-99.9,29.89,NE,38,11.0,-999.0,-999,-99.99,,,-99.99,,2013-03-28 19:12:00,
2013-03-28 15:23:00,48.0,-99.9,29.89,ENE,70,6.0,-999.0,-999,-99.99,,,-99.99,,2013-03-28 19:23:00,
2013-03-28 15:33:00,48.0,-99.9,29.89,ENE,70,6.0,-999.0,-999,-99.99,,,-99.99,,2013-03-28 19:33:00,
2013-03-28 15:43:00,48.0,-99.9,29.89,ENE,70,6.0,-999.0,-999,-99.99,,,-99.99,,2013-03-28 19:43:00,
2013-03-28 15:52:00,48.0,-99.9,29.90,ENE,71,8.0,-999.0,-999,-99.99,,,-99.99,,2013-03-28 19:52:00,
2013-03-28 16:03:00,48.0,-99.9,29.90,ENE,71,8.0,-999.0,-999,-99.99,,,-99.99,,2013-03-28 20:03:00,
2013-03-28 16:13:00,48.0,-99.9,29.90,ENE,71,8.0,-999.0,-999,-99.99,,,-99.99,,2013-03-28 20:13:00,
2013-03-28 16:22:00,48.0,-99.9,29.90,ENE,61,8.0,-999.0,-999,-99.99,,,-99.99,,2013-03-28 20:22:00,
2013-03-28 16:33:00,48.0,-99.9,29.90,ENE,61,8.0,-999.0,-999,-99.99,,,-99.99,,2013-03-28 20:33:00,
2013-03-28 16:43:00,48.0,-99.9,29.90,ENE,61,8.0,-999.0,-999,-99.99,,,-99.99,,2013-03-28 20:43:00,
2013-03-28 16:53:00,48.0,-99.9,29.90,NE,52,7.0,-999.0,-999,-99.99,,,-99.99,,2013-03-28 20:53:00,
2013-03-28 17:03:00,48.0,-99.9,29.90,NE,52,7.0,-999.0,-999,-99.99,,,-99.99,,2013-03-28 21:03:00,
2013-03-28 17:12:00,48.0,-99.9,29.90,NE,52,7.0,-999.0,-999,-99.99,,,-99.99,,2013-03-28 21:12:00,
2013-03-28 17:22:00,48.0,-99.9,29.91,NNE,25,8.0,-999.0,-999,-99.99,,,-99.99,,2013-03-28 21:22:00,
2013-03-28 17:33:00,48.0,-99.9,29.91,NNE,25,8.0,-999.0,-999,-99.99,,,-99.99,,2013-03-28 21:33:00,
2013-03-28 17:43:00,47.0,-99.9,29.91,ENE,69,7.0,-999.0,-999,-99.99,,,-99.99,,2013-03-28 21:43:00,
2013-03-28 17:53:00,47.0,-99.9,29.91,ENE,69,7.0,-999.0,-999,-99.99,,,-99.99,,2013-03-28 21:53:00,
2013-03-28 18:03:00,47.0,-99.9,29.91,ENE,69,7.0,-999.0,-999,-99.99,,,-99.99,,2013-03-28 22:03:00,
2013-03-28 18:13:00,47.0,-99.9,29.91,ENE,69,7.0,-999.0,-999,-99.99,,,-99.99,,2013-03-28 22:13:00,
2013-03-28 18:23:00,47.0,-99.9,29.92,NNE,27,6.0,-999.0,-999,-99.99,,,-99.99,,2013-03-28 22:23:00,
2013-03-28 18:32:00,47.0,-99.9,29.92,NNE,27,6.0,-999.0,-999,-99.99,,,-99.99,,2013-03-28 22:32:00,
2013-03-28 18:42:00,47.0,-99.9,29.92,NNE,27,6.0,-999.0,-999,-99.99,,,-99.99,,2013-03-28 22:42:00,
2013-03-28 18:53:00,47.0,-99.9,29.93,North,352,5.0,-999.0,-999,-99.99,,,-99.99,,2013-03-28 22:53:00,
2013-03-28 19:03:00,47.0,-99.9,29.93,North,352,5.0,-999.0,-999,-99.99,,,-99.99,,2013-03-28 23:03:00,
2013-03-28 19:12:00,47.0,-99.9,29.93,North,352,5.0,-999.0,-999,-99.99,,,-99.99,,2013-03-28 23:12:00,
2013-03-28 19:22:00,47.0,-99.9,29.95,WNW,300,5.0,-999.0,-999,-99.99,,,-99.99,,2013-03-28 23:22:00,
2013-03-28 19:32:00,47.0,-99.9,29.95,WNW,300,5.0,-999.0,-999,-99.99,,,-99.99,,2013-03-28 23:32:00,
2013-03-28 19:42:00,45.0,-99.9,29.96,West,277,7.0,-999.0,-999,-99.99,,,-99.99,,2013-03-28 23:42:00,
2013-03-28 19:53:00,45.0,-99.9,29.96,West,277,7.0,-999.0,-999,-99.99,,,-99.99,,2013-03-28 23:53:00,
2013-03-28 20:03:00,45.0,-99.9,29.96,West,277,7.0,-999.0,-999,-99.99,,,-99.99,,2013-03-29 00:03:00,
2013-03-28 20:12:00,45.0,-99.9,29.96,West,277,7.0,-999.0,-999,-99.99,,,-99.99,,2013-03-29 00:12:00,
2013-03-28 20:22:00,45.0,-99.9,29.96,WNW,297,7.0,-999.0,-999,-99.99,,,-99.99,,2013-03-29 00:22:00,
2013-03-28 20:33:00,45.0,-99.9,29.96,WNW,297,7.0,-999.0,-999,-99.99,,,-99.99,,2013-03-29 00:33:00,
2013-03-28 20:43:00,45.0,-99.9,29.97,WNW,297,4.0,-999.0,-999,-99.99,,,-99.99,,2013-03-29 00:43:00,
2013-03-28 20:52:00,45.0,-99.9,29.97,WNW,297,4.0,-999.0,-999,-99.99,,,-99.99,,2013-03-29 00:52:00,
2013-03-28 21:02:00,45.0,-99.9,29.97,WNW,297,4.0,-999.0,-999,-99.99,,,-99.99,,2013-03-29 01:02:00,
2013-03-28 21:12:00,45.0,-99.9,29.97,WNW,297,4.0,-999.0,-999,-99.99,,,-99.99,,2013-03-29 01:12:00,
2013-03-28 21:23:00,45.0,-99.9,29.97,WNW,296,7.0,-999.0,-999,-99.99,,,-99.99,,2013-03-29 01:23:00,
2013-03-28 21:33:00,45.0,-99.9,29.97,WNW,296,7.0,-999.0,-999,-99.99,,,-99.99,,2013-03-29 01:33:00,
2013-03-28 21:42:00,45.0,-99.9,29.98,WNW,299,7.0,-999.0,-999,-99.99,,,-99.99,,2013-03-29 01:42:00,
2013-03-28 21:53:00,45.0,-99.9,29.98,WNW,299,7.0,-999.0,-999,-99.99,,,-99.99,,2013-03-29 01:53:00,
2013-03-28 22:03:00,45.0,-99.9,29.98,WNW,299,7.0,-999.0,-999,-99.99,,,-99.99,,2013-03-29 02:03:00,
2013-03-28 22:12:00,45.0,-99.9,29.98,WNW,299,7.0,-999.0,-999,-99.99,,,-99.99,,2013-03-29 02:12:00,
2013-03-28 22:22:00,44.0,-99.9,29.98,WNW,300,8.0,-999.0,-999,-99.99,,,-99.99,,2013-03-29 02:22:00,
2013-03-28 22:32:00,44.0,-99.9,29.98,WNW,300,8.0,-999.0,-999,-99.99,,,-99.99,,2013-03-29 02:32:00,
2013-03-28 22:42:00,44.0,-99.9,29.98,WNW,300,8.0,-999.0,-999,-99.99,,,-99.99,,2013-03-29 02:42:00,
2013-03-28 22:53:00,44.0,-99.9,29.98,WNW,302,9.0,-999.0,-999,-99.99,,,-99.99,,2013-03-29 02:53:00,
2013-03-28 23:03:00,44.0,-99.9,29.98,WNW,302,9.0,-999.0,-999,-99.99,,,-99.99,,2013-03-29 03:03:00,
2013-03-28 23:12:00,44.0,-99.9,29.98,WNW,302,9.0,-999.0,-999,-99.99,,,-99.99,,2013-03-29 03:12:00,
2013-03-28 23:22:00,44.0,-99.9,29.98,WNW,302,7.0,-999.0,-999,-99.99,,,-99.99,,2013-03-29 03:22:00,
2013-03-28 23:33:00,44.0,-99.9,29.98,WNW,302,7.0,-999.0,-999,-99.99,,,-99.99,,2013-03-29 03:33:00,
2013-03-28 23:43:00,44.0,-99.9,29.98,WNW,302,7.0,-999.0,-999,-99.99,,,-99.99,,2013-03-29 03:43:00,
2013-03-28 23:53:00,44.0,-99.9,29.98,NW,306,6.0,-999.0,-999,-99.99,,,-99.99,,2013-03-29 03:53:00,